This demonstration page uses our WeatherBlox Daily Observations layout. Learn more.

Left ArrowRight Arrow

34.74481, -87.66753

Hourly Observations for June 22, 2017

Temp ( °F °C ) Dew Point ( °F °C ) Humidity (%) Winds ( mph kmh ) Pressure ( in mb ) Visibility ( mi km ) Precip ( " mm )
12:53 am 00:53 Mostly Clear 73 22.8 69 20.6 87 87 ESE 7 11 29.97 1015 10 16 0.00 0.00
1:53 am 01:53 Mostly Clear 73 22.8 69 20.6 87 87 SE 8 13 29.96 1014 10 16 0.00 0.00
2:13 am 02:13 Mostly Cloudy 73 22.8 69 20.6 87 87 SE 9 15 29.94 1014 10 16 0.00 0.00
2:53 am 02:53 Cloudy 73 22.8 69 20.6 87 87 SSE 9 15 29.95 1014 10 16 0.00 0.03
3:00 am 03:00 Cloudy with Light Rain 73 22.8 69 20.6 87 87 SSE 10 17 29.94 1014 10 16 0.01 0.25
3:53 am 03:53 Mostly Cloudy with Light Rain 73 22.8 69 20.6 87 87 SE 8 13 29.95 1014 10 16 0.03 0.76
4:07 am 04:07 Cloudy with Light Rain 73 22.8 70 21.1 90 90 SE 7 11 29.94 1014 10 16 0.00 0.03
4:53 am 04:53 Cloudy with Light Rain 73 22.8 70 21.1 90 90 SE 8 13 29.94 1014 10 16 0.08 2.03
5:02 am 05:02 Cloudy with Light Rain 73 22.8 70 21.1 90 90 SE 10 17 29.94 1014 10 16 0.01 0.25
5:10 am 05:10 Cloudy with Light Rain 73 22.8 70 21.1 90 90 SE 9 15 29.94 1014 10 16 0.02 0.51
5:34 am 05:34 Cloudy with Light Rain 73 22.8 70 21.1 90 90 ESE 10 17 29.91 1013 10 16 0.04 1.02
5:49 am 05:49 Mostly Cloudy with Light Rain 73 23 70 21 89 89 SE 9 15 29.94 1014 10 16 0.04 1.02
5:53 am 05:53 Mostly Cloudy with Light Rain 73 22.8 70 21.1 90 90 ESE 12 19 29.93 1014 10 16 0.04 1.02
6:10 am 06:10 Mostly Cloudy 73 22.8 70 21.1 90 90 ESE 12 19 29.94 1014 10 16 0.00 0.03
6:16 am 06:16 Cloudy 73 22.8 70 21.1 90 90 ESE 12 19 29.94 1014 10 16 0.00 0.03
6:23 am 06:23 Cloudy 73 22.8 70 21.1 90 90 ESE 9 15 29.94 1014 10 16 0.00 0.03
6:53 am 06:53 Cloudy with Light Rain 73 22.8 70 21.1 90 90 ESE 12 19 29.95 1014 10 16 0.01 0.25
6:59 am 06:59 Cloudy with Light Rain 73 22.8 70 21.1 90 90 ESE 10 17 29.94 1014 10 16 0.00 0.03
7:10 am 07:10 Cloudy with Light Rain 73 22.8 70 21.1 90 90 SE 10 17 29.94 1014 10 16 0.00 0.03
7:42 am 07:42 Cloudy with Light Rain 73 22.8 70 21.1 90 90 ESE 9 15 29.94 1014 10 16 0.03 0.76
7:53 am 07:53 Cloudy 73 22.8 70 21.1 90 90 ESE 10 17 29.96 1015 10 16 0.03 0.76
8:49 am 08:49 Cloudy 75 24 72 22 89 89 SE 14 22 29.94 1014 10 16 0.00 0.03
8:53 am 08:53 Cloudy 75 23.9 71 21.7 88 88 SE 12 19 29.95 1014 10 16 0.00 0.03
9:53 am 09:53 Cloudy 75 23.9 72 22.2 90 90 SE 10 17 29.94 1014 10 16 0.00 0.03
10:32 am 10:32 Cloudy 77 25 73 22.8 88 88 SE 13 20 29.94 1014 10 16 0.00 0.00
10:53 am 10:53 Cloudy 78 25.6 73 22.8 85 85 SE 13 20 29.93 1013 10 16 0.00 0.00
11:53 am 11:53 Cloudy 78 25.6 74 23.3 87 87 S 8 13 29.92 1013 10 16 0.00 0.00
12:09 pm 12:09 Cloudy with Light Rain 79 26.1 74 23.3 85 85 S 10 17 29.91 1013 10 16 0.01 0.25
12:53 pm 12:53 Cloudy 80 26.7 73 22.8 79 79 SSE 15 24 29.91 1013 10 16 0.01 0.25
1:53 pm 13:53 Cloudy with Light Rain 80 26.7 74 23.3 82 82 S 10 17 29.89 1012 10 16 0.01 0.25
2:53 pm 14:53 Mostly Cloudy 80 26.7 72 22.2 76 76 S 9 15 29.88 1012 10 16 0.00 0.03
3:53 pm 15:53 Cloudy 83 28.3 73 22.8 72 72 S 21 33 29.87 1011 10 16 0.00 0.00
4:20 pm 16:20 Cloudy 81 27.2 72 22.2 74 74 S 18 30 29.85 1011 10 16 0.00 0.00
4:53 pm 16:53 Cloudy 82 27.8 73 22.8 74 74 S 12 19 29.85 1011 10 16 0.00 0.00
5:05 pm 17:05 Mostly Cloudy 83 28.3 73 22.8 72 72 SSE 16 26 29.85 1011 10 16 0.00 0.00
5:53 pm 17:53 Mostly Cloudy 83 28.3 72 22.2 70 70 SSE 14 22 29.84 1011 10 16 0.00 0.00
6:34 pm 18:34 Mostly Cloudy 81 27.2 72 22.2 74 74 S 10 17 29.85 1011 10 16 0.00 0.00
6:53 pm 18:53 Mostly Cloudy 81 27.2 72 22.2 74 74 SSE 16 26 29.85 1011 10 16 0.00 0.00
7:18 pm 19:18 Mostly Cloudy 81 27.2 72 22.2 74 74 S 13 20 29.85 1011 10 16 0.00 0.00
7:53 pm 19:53 Cloudy 80 26.7 72 22.2 76 76 SSE 12 19 29.85 1011 10 16 0.00 0.00
8:53 pm 20:53 Cloudy 79 26.1 72 22.2 79 79 SSE 10 17 29.86 1011 10 16 0.00 0.00
9:37 pm 21:37 Partly Cloudy 79 26.1 72 22.2 79 79 SSE 13 20 29.85 1011 10 16 0.00 0.00
9:53 pm 21:53 Mostly Cloudy 79 26.1 72 22.2 79 79 SSE 13 20 29.87 1012 10 16 0.00 0.00
10:37 pm 22:37 Mostly Cloudy 79 26.1 72 22.2 79 79 S 12 19 29.88 1012 10 16 0.00 0.00
10:53 pm 22:53 Cloudy 79 26.1 72 22.2 79 79 S 12 19 29.88 1012 10 16 0.00 0.00
11:46 pm 23:46 Partly Cloudy 79 26.1 72 22.2 79 79 S 12 19 29.85 1011 10 16 0.00 0.00
11:53 pm 23:53 Partly Cloudy 79 26.1 72 22.2 79 79 S 9 15 29.87 1011 10 16 0.00 0.00

Powered by AerisWeather